Temperature
19 19 18 18 17 17 16 16 16 16 15 15 15 15 15 14 14 14 14 14 14 14 14 14 14 14 14 14 14 14 14 14 14 14 14 14 14 14 14 14 13 13 13
20 19 18 18 17 17 16 16 16 16 15 15 15 14 14 14 14 14 14 14 14 14 14 14 14 14 14 13 13 13 13 13 13 13 13 13 13 13 13 13 13 13 13
19 19 18 17 17 17 16 16 16 15 15 15 15 14 14 14 14 14 14 14 14 14 14 14 14 13 13 13 13 13 13 13 13 13 13 13 13 12 13 13 13 13 13
19 19 18 17 17 17 16 16 15 15 15 15 15 14 14 14 14 14 14 14 13 13 13 13 13 13 13 13 13 13 13 13 13 13 13 13 13 12 12 12 12 12 12
19 19 18 17 17 16 16 16 15 15 15 15 14 14 14 14 14 14 13 13 13 13 13 13 13 13 13 13 12 12 12 12 12 12 12 12 12 12 12 11 12 12 12
19 18 18 17 17 16 16 16 15 15 15 14 14 14 14 14 14 13 13 13 13 13 13 13 13 13 12 12 12 12 12 12 12 12 12 12 12 12 12 11 11 11 12
19 18 17 17 16 16 16 15 15 15 15 14 14 14 14 14 13 13 13 13 13 13 12 12 12 12 12 12 12 12 12 12 12 12 12 12 12 12 12 11 11 11 11
18 18 17 17 16 16 15 15 15 15 14 14 14 14 14 13 13 13 13 13 12 12 12 12 12 12 12 12 12 12 11 11 11 11 11 11 11 11 11 11 11 10 11
17 17 17 16 16 15 15 15 15 14 14 14 14 14 14 13 13 13 13 12 12 12 12 12 12 12 12 12 12 11 11 11 11 11 11 11 11 11 11 11 10 10 10
17 17 16 16 16 15 15 14 14 14 14 14 13 13 13 13 13 13 12 12 12 12 12 12 12 11 11 11 11 11 11 11 11 11 11 11 11 11 11 10 10 10 10
17 16 16 16 15 15 15 14 14 14 14 13 13 13 13 13 13 12 12 12 12 12 11 11 11 11 11 11 11 11 11 11 11 11 11 10 10 10 10 10 10 10 10
16 16 15 15 15 14 14 14 14 13 13 13 13 13 13 13 12 12 12 12 11 11 11 11 11 11 11 11 10 10 10 10 10 10 10 10 10 10 10 10 10 10 10
16 15 15 15 14 14 14 14 13 13 13 13 13 12 12 12 12 12 12 11 11 11 11 11 10 10 10 10 10 10 10 10 10 10 10 10 10 10 10 10 10 9 9
15 15 14 14 14 14 14 13 13 13 13 12 12 12 12 12 11 11 11 11 11 11 10 10 10 10 10 10 10 10 10 9 9 9 9 9 9 9 9 9 9 9 9
14 14 14 14 13 13 13 13 13 12 12 12 12 12 12 11 11 11 11 11 11 10 10 10 10 10 10 10 10 9 9 9 9 9 9 9 9 9 9 9 9 9 9
14 14 13 13 13 13 13 13 12 12 12 12 12 12 11 11 11 11 11 10 10 10 10 10 10 9 9 9 9 9 9 9 9 9 9 9 9 9 9 9 9 9 9
14 13 13 13 12 12 12 12 12 12 12 11 11 11 11 11 10 10 10 10 10 10 10 9 9 9 9 9 9 9 9 9 9 8 9 9 9 9 9 9 9 9 9
13 13 12 12 12 12 12 12 12 12 11 11 11 10 10 10 10 10 10 9 9 9 9 9 9 9 9 9 9 9 9 8 8 8 8 8 8 8 8 8 9 9 9
13 12 12 12 12 12 11 11 11 11 11 11 10 10 10 10 10 9 9 9 9 9 9 8 8 8 8 8 8 8 8 8 8 8 8 8 8 8 8 8 8 8 9
12 12 12 11 11 11 11 11 11 11 10 10 10 10 9 9 9 9 9 9 9 8 8 8 8 8 8 8 8 8 8 8 8 8 8 8 8 8 8 8 8 8 8
12 11 11 11 10 10 10 10 10 10 10 10 9 9 9 9 9 9 8 8 8 8 8 8 8 7 7 8 7 7 7 7 7 7 8 8 8 8 8 8 8 8 8
11 11 10 10 10 10 10 10 10 10 9 9 9 9 9 8 8 8 8 8 8 7 7 7 7 7 7 7 7 7 7 7 7 7 7 7 7 7 7 7 7 8 8
10 10 10 10 9 9 10 10 9 9 9 9 9 8 8 8 8 8 7 7 7 7 7 7 7 7 7 7 7 7 7 7 7 7 7 7 7 7 7 7 7 7 7
9 9 9 9 9 9 9 9 9 9 9 8 8 8 8 7 7 7 7 7 7 6 6 6 6 6 6 6 6 6 6 6 6 6 6 6 7 7 7 7 7 7 7
9 9 9 9 8 9 9 9 9 8 8 8 8 7 7 7 7 7 7 6 6 6 6 6 6 6 6 6 6 6 6 6 6 6 6 6 6 6 6 6 6 6 6
9 8 8 8 8 8 8 8 8 8 8 8 7 7 7 6 6 6 6 6 6 6 6 6 6 6 6 5 5 5 5 5 5 5 5 5 5 5 5 5 5 5 6
Wind_Speed
8 7 7 6 6 6 6 6 6 5 4 3 3 3 2 2 3 3 5 5 6 6 5 4 4 4 4 4 4 4 4 3 3 2 2 2 2 3 3 2 3 4 5
9 8 7 6 5 6 6 6 5 5 5 3 2 2 2 2 2 3 4 5 5 5 5 3 3 4 3 4 4 3 3 2 3 2 1 2 3 4 2 2 2 3 3
8 8 7 6 5 5 5 5 6 6 6 5 3 3 3 2 2 2 2 3 4 4 4 3 3 3 3 3 2 3 3 2 3 2 1 1 0 2 2 3 3 2 2
7 7 7 6 5 5 5 5 6 6 5 5 3 3 2 2 2 1 1 2 3 4 4 3 3 2 2 2 2 3 2 2 3 3 3 2 1 0 1 3 3 2 3
7 8 8 6 6 5 4 4 5 5 5 5 4 3 2 2 1 2 2 2 3 4 4 3 2 2 2 2 2 2 2 2 2 2 3 3 3 2 1 2 3 3 3
7 7 7 7 6 5 4 3 5 5 5 4 4 3 3 2 2 2 2 2 2 2 3 3 3 2 2 2 1 2 2 2 2 2 2 2 1 2 1 1 2 2 2
7 7 7 7 7 6 5 4 4 5 5 4 3 3 3 2 2 2 1 1 1 1 1 2 2 2 2 1 2 1 1 1 2 2 2 2 2 1 1 1 1 2 2
5 6 6 7 7 7 6 5 5 4 4 3 3 3 3 2 1 1 2 1 1 1 1 1 1 2 2 2 2 1 1 1 1 2 2 1 2 2 1 1 1 2 2
6 5 5 6 7 7 6 5 5 4 4 3 3 3 3 2 2 2 2 1 1 1 2 1 1 1 2 2 2 1 1 1 1 1 1 1 1 1 1 1 0 0 2
5 5 5 5 6 5 5 5 5 4 4 3 3 3 2 2 2 2 1 1 1 1 1 1 1 2 2 2 1 1 1 1 1 1 1 1 1 1 1 1 1 1 0
4 4 5 5 5 5 5 4 4 4 3 3 3 3 2 2 2 1 1 1 1 1 1 1 1 1 1 1 2 1 2 2 2 2 1 1 1 1 1 1 1 2 1
3 4 5 5 5 4 4 4 4 4 3 2 2 3 3 2 2 1 1 1 1 1 1 2 1 1 1 1 1 1 2 2 2 2 1 1 1 1 0 0 0 1 1
3 3 4 4 4 4 4 4 4 3 4 3 3 3 2 2 1 1 1 1 1 1 1 1 1 1 1 1 1 1 1 2 2 2 2 1 1 1 1 1 1 1 2
3 3 3 3 3 3 4 4 4 4 4 4 3 2 2 2 2 2 1 1 1 1 0 0 0 1 1 1 1 1 1 2 2 2 2 2 2 1 1 1 1 1 1
3 3 3 3 3 2 3 4 4 4 4 3 2 2 2 2 2 2 2 2 1 1 1 1 1 1 1 1 2 2 2 2 2 2 2 2 3 4 2 2 1 1 1
2 2 2 2 2 2 2 3 4 4 4 4 3 2 2 2 2 2 2 1 1 1 1 1 2 2 2 3 4 4 2 2 2 2 2 2 2 3 4 4 3 2 2
2 1 2 2 2 2 3 3 3 4 3 3 3 3 2 2 2 1 2 1 1 1 1 1 2 2 2 4 4 5 3 3 2 2 2 3 3 3 2 4 5 5 5
2 1 1 2 2 2 2 3 4 4 3 3 3 2 2 2 2 2 2 1 1 1 1 1 1 1 1 3 4 6 3 3 3 2 2 2 2 4 4 3 3 3 4
1 1 1 2 2 2 2 2 3 3 3 3 3 2 2 2 2 1 1 1 1 1 1 0 1 1 1 4 5 5 3 3 3 3 3 2 2 5 6 3 4 4 4
2 2 2 2 3 2 2 2 2 3 3 3 2 2 1 2 2 1 1 0 1 0 0 1 1 1 1 3 5 5 2 2 3 3 3 4 4 5 6 3 3 4 4
3 3 2 2 2 2 1 2 2 2 2 2 2 2 2 1 1 1 1 0 0 1 0 1 1 1 1 3 5 5 3 3 3 3 3 3 6 6 7 5 3 4 4
3 3 2 2 2 2 1 2 2 2 2 2 2 2 2 1 1 1 1 0 0 0 1 1 1 1 1 2 4 5 5 5 3 3 3 4 7 8 8 5 6 6 5
3 2 2 2 1 1 1 1 1 2 3 2 1 2 2 1 1 1 1 1 0 0 1 1 1 1 1 2 5 6 7 8 5 4 6 7 8 7 5 6 7 5 3
2 2 2 1 1 1 0 0 1 1 2 2 2 2 2 2 1 1 1 1 0 0 1 1 2 2 1 1 2 3 4 5 5 5 6 7 6 5 5 6 5 3 3
2 2 1 1 0 0 0 0 0 1 1 2 2 1 1 2 1 1 0 1 1 2 2 2 2 2 2 3 4 3 3 3 4 4 4 3 3 3 3 3 3 3 2
1 1 1 2 2 1 1 1 0 0 1 1 2 2 1 1 1 1 0 1 1 2 3 3 3 2 3 4 4 5 6 6 6 3 3 3 3 3 3 4 3 3 3
Wind_Direction
160 150 142 135 128 123 123 124 124 114 103 88 83 88 84 77 61 52 45 49 59 61 57 53 54 52 55 49 46 44 31 32 26 29 12 360 34 53 51 42 37 42 65
160 150 147 138 137 136 136 133 126 119 109 97 95 100 98 93 87 60 44 46 54 59 55 53 60 59 54 48 43 46 34 11 17 28 12 11 357 11 27 33 33 31 43
160 153 149 145 144 143 145 140 130 124 116 108 95 83 72 66 72 65 44 36 45 62 59 49 57 65 64 59 38 42 41 9 350 17 46 47 348 333 344 12 29 29 21
154 149 145 146 151 151 145 144 138 129 123 123 113 108 101 91 87 83 67 22 38 43 50 54 58 58 62 65 31 46 23 22 356 354 8 33 58 133 335 343 6 15 25
153 150 148 152 150 139 137 144 139 134 134 129 129 130 112 104 90 81 84 54 41 35 31 30 46 50 54 56 37 40 22 17 5 360 359 10 355 3 53 320 332 355 10
147 146 147 144 135 128 129 138 134 128 127 131 134 133 115 101 89 72 67 47 47 31 28 27 28 36 38 43 45 43 26 15 6 3 6 6 357 348 31 345 328 336 333
151 153 150 144 139 137 139 135 131 133 134 142 139 131 126 124 114 99 90 67 52 21 13 39 26 14 7 30 49 42 17 7 5 360 358 6 352 359 48 40 334 331 317
129 136 147 145 144 141 141 145 145 141 143 159 150 136 127 120 108 107 97 84 67 28 9 44 34 19 11 13 36 45 4 12 2 360 2 351 346 10 45 79 13 336 333
122 126 127 132 140 144 150 154 147 147 154 167 153 138 130 121 115 104 90 79 60 14 25 29 29 32 19 15 37 29 345 1 351 339 0 358 349 1 28 54 142 237 325
122 129 127 124 125 136 146 148 152 152 154 165 156 135 132 121 114 114 108 104 58 37 15 29 20 22 25 19 31 28 339 351 338 354 20 15 23 14 14 29 349 355 298
125 127 123 125 124 129 136 140 146 145 150 156 146 135 134 121 113 120 123 136 103 72 45 58 39 37 24 19 49 12 347 346 343 346 14 14 13 8 360 4 6 356 351
119 122 126 130 132 132 138 145 140 133 127 130 131 137 140 136 130 133 126 101 96 63 45 52 35 45 49 43 62 3 353 349 341 342 357 346 355 360 347 356 319 317 319
107 112 129 133 130 140 144 140 132 128 126 113 103 107 113 128 153 139 102 92 86 65 54 67 35 51 58 45 44 33 354 345 340 349 352 329 306 289 275 259 249 258 298
116 113 114 117 121 128 138 133 131 126 121 117 121 117 105 91 82 82 64 67 77 78 35 95 41 43 51 54 29 4 350 351 341 343 347 335 333 312 278 266 264 267 279
103 116 116 109 112 116 120 132 134 131 129 130 125 111 101 85 75 76 69 50 48 35 12 39 65 36 35 30 22 0 349 351 334 337 347 345 5 5 350 328 305 289 285
122 123 128 120 123 125 130 129 132 131 130 130 122 110 110 98 87 81 75 53 36 27 24 42 50 30 12 17 13 355 339 326 311 313 314 311 329 335 340 334 322 312 298
138 135 146 138 125 127 129 125 120 121 122 124 125 120 113 101 90 72 68 47 22 32 16 31 64 58 34 22 9 348 329 306 295 299 310 314 314 329 299 298 302 295 292
127 136 124 119 122 111 112 111 119 127 132 132 125 105 104 107 91 71 61 22 19 59 24 20 47 82 13 8 358 343 322 307 305 295 284 286 306 314 316 291 283 279 282
97 108 110 115 114 107 113 118 128 137 137 132 129 126 124 121 111 88 77 19 28 28 341 29 37 53 17 1 355 345 315 311 313 313 317 319 306 318 321 304 289 286 280
82 74 90 112 113 100 104 145 142 136 139 135 133 130 132 143 150 138 111 16 355 299 299 50 68 69 52 359 359 358 340 327 320 318 328 334 326 319 323 299 280 279 282
75 80 89 104 112 114 121 156 149 150 139 125 139 155 163 162 156 150 145 141 322 313 345 57 59 59 48 8 357 355 352 340 329 325 326 327 331 322 319 309 285 276 285
65 73 85 92 107 123 121 125 142 131 121 127 143 158 161 172 150 148 163 161 182 340 4 20 358 15 27 8 342 342 341 344 330 321 328 326 332 330 322 313 306 303 305
57 47 82 93 96 116 116 127 123 120 132 143 157 168 165 161 166 168 175 168 118 75 335 325 312 317 350 354 342 337 332 335 331 320 316 312 314 319 316 310 310 306 291
58 37 77 115 105 90 94 93 91 114 154 166 177 179 176 169 163 166 151 140 143 302 284 291 294 305 332 350 338 325 318 323 325 322 314 309 305 307 300 306 305 288 277
64 43 31 37 282 196 141 121 101 158 187 184 177 170 153 161 164 147 171 193 184 212 246 254 259 268 278 291 306 310 307 310 306 316 316 324 332 331 325 318 306 292 294
50 41 17 17 359 10 12 17 133 200 208 196 175 166 152 156 164 171 329 352 256 249 255 258 260 281 288 300 306 306 307 309 311 316 305 307 312 309 312 313 310 305 299
Height
1520 1522 1524 1526 1527 1528 1529 1529 1530 1531 1531 1532 1532 1533 1533 1534 1534 1534 1534 1534 1534 1534 1534 1534 1533 1533 1533 1532 1533 1532 1532 1531 1531 1531 1530 1530 1530 1530 1529 1528 1528 1527 1526
1518 1521 1523 1524 1526 1527 1528 1529 1530 1531 1531 1532 1533 1533 1534 1534 1534 1534 1534 1535 1534 1534 1534 1534 1534 1533 1533 1533 1533 1532 1532 1532 1532 1532 1530 1530 1531 1530 1530 1529 1528 1527 1526
1516 1518 1520 1523 1524 1526 1527 1529 1529 1530 1531 1532 1533 1533 1534 1534 1535 1535 1535 1535 1535 1535 1534 1534 1534 1534 1533 1533 1533 1533 1533 1532 1533 1533 1532 1532 1531 1530 1530 1529 1528 1528 1526
1514 1516 1518 1521 1523 1525 1526 1527 1529 1529 1530 1531 1532 1533 1533 1534 1534 1535 1535 1535 1535 1535 1534 1534 1534 1534 1534 1533 1533 1533 1533 1533 1532 1532 1532 1532 1531 1531 1530 1530 1529 1528 1527
1512 1514 1516 1519 1521 1523 1524 1526 1527 1528 1529 1530 1532 1532 1533 1534 1534 1535 1534 1535 1534 1534 1534 1534 1534 1534 1533 1533 1533 1533 1533 1533 1532 1532 1532 1531 1531 1530 1530 1529 1528 1527 1526
1510 1512 1515 1517 1519 1521 1523 1525 1526 1527 1528 1529 1531 1532 1533 1533 1533 1534 1534 1534 1534 1533 1533 1533 1533 1533 1533 1533 1533 1532 1532 1532 1532 1532 1531 1531 1530 1530 1529 1528 1527 1527 1526
1507 1511 1513 1515 1517 1519 1521 1523 1525 1526 1527 1528 1530 1531 1532 1532 1533 1533 1533 1533 1533 1532 1532 1532 1532 1532 1532 1532 1532 1532 1532 1531 1531 1531 1530 1530 1530 1529 1529 1528 1527 1526 1525
1506 1509 1511 1513 1515 1517 1520 1521 1523 1524 1526 1527 1528 1530 1531 1531 1532 1532 1532 1532 1532 1532 1532 1532 1531 1531 1531 1531 1531 1531 1531 1530 1530 1530 1529 1529 1528 1528 1528 1527 1527 1525 1524
1505 1508 1510 1512 1514 1516 1518 1520 1522 1523 1524 1526 1527 1528 1529 1530 1530 1531 1531 1531 1531 1531 1531 1530 1530 1530 1530 1530 1530 1529 1529 1529 1529 1529 1528 1528 1527 1527 1526 1526 1526 1526 1524
1505 1507 1509 1511 1513 1515 1517 1519 1520 1522 1523 1524 1525 1526 1527 1528 1529 1529 1530 1530 1530 1530 1529 1529 1529 1529 1529 1528 1528 1528 1528 1528 1528 1528 1527 1526 1526 1525 1525 1525 1525 1525 1524
1505 1506 1508 1510 1512 1514 1515 1517 1519 1520 1521 1522 1523 1524 1525 1526 1527 1528 1528 1528 1528 1528 1528 1528 1528 1527 1527 1527 1527 1527 1527 1526 1526 1526 1526 1525 1524 1524 1523 1523 1523 1523 1523
1504 1506 1507 1509 1511 1513 1514 1516 1517 1518 1519 1521 1522 1523 1524 1525 1525 1526 1527 1527 1527 1527 1527 1527 1526 1526 1526 1526 1526 1525 1525 1525 1525 1524 1524 1523 1523 1523 1522 1522 1522 1522 1521
1503 1505 1506 1508 1509 1511 1513 1514 1515 1516 1517 1519 1520 1521 1522 1523 1523 1524 1525 1525 1525 1525 1525 1525 1525 1525 1524 1524 1524 1524 1524 1523 1523 1523 1522 1522 1522 1521 1521 1521 1520 1520 1519
1502 1504 1505 1507 1508 1510 1511 1512 1514 1514 1516 1517 1518 1519 1520 1521 1521 1522 1523 1523 1524 1524 1524 1524 1524 1524 1523 1523 1523 1522 1522 1522 1521 1521 1521 1521 1520 1520 1520 1519 1519 1518 1517
1501 1503 1504 1506 1507 1508 1510 1511 1512 1513 1514 1515 1516 1517 1518 1519 1519 1520 1521 1521 1521 1522 1522 1522 1522 1522 1522 1521 1521 1521 1520 1520 1520 1519 1519 1519 1519 1519 1518 1517 1517 1516 1515
1501 1502 1503 1504 1505 1506 1508 1509 1510 1511 1512 1513 1514 1515 1516 1517 1518 1518 1518 1519 1519 1519 1520 1520 1520 1520 1520 1520 1520 1519 1518 1518 1518 1517 1517 1517 1517 1516 1516 1515 1515 1515 1514
1500 1501 1502 1502 1503 1505 1506 1507 1508 1509 1510 1511 1512 1513 1514 1515 1516 1516 1517 1517 1517 1517 1518 1518 1518 1518 1518 1518 1517 1517 1517 1516 1516 1515 1515 1514 1514 1514 1513 1513 1512 1512 1511
1498 1499 1500 1501 1502 1503 1504 1505 1506 1507 1508 1509 1511 1511 1512 1513 1514 1514 1514 1515 1515 1515 1515 1515 1516 1516 1516 1516 1515 1515 1514 1514 1513 1513 1513 1512 1512 1511 1511 1510 1509 1508 1507
1497 1498 1499 1499 1500 1501 1502 1503 1504 1505 1506 1507 1508 1509 1510 1511 1511 1512 1512 1513 1513 1513 1513 1513 1514 1514 1513 1513 1513 1512 1512 1511 1511 1510 1510 1510 1509 1508 1508 1507 1506 1505 1504
1495 1496 1496 1497 1498 1499 1500 1501 1502 1503 1504 1505 1506 1507 1508 1508 1509 1510 1510 1511 1511 1511 1511 1511 1511 1511 1511 1511 1510 1510 1509 1508 1508 1508 1507 1507 1506 1505 1505 1504 1503 1502 1501
1493 1494 1495 1495 1496 1497 1498 1499 1500 1501 1502 1503 1504 1505 1506 1506 1507 1508 1508 1509 1509 1509 1509 1509 1509 1509 1508 1508 1508 1507 1507 1506 1505 1504 1504 1503 1503 1502 1501 1500 1499 1499 1499
1492 1492 1493 1494 1495 1496 1496 1497 1498 1499 1500 1501 1502 1503 1503 1504 1505 1506 1506 1506 1507 1507 1507 1506 1506 1506 1506 1505 1505 1505 1504 1503 1502 1501 1500 1500 1499 1499 1498 1497 1496 1496 1496
1491 1492 1492 1492 1493 1494 1495 1496 1496 1497 1498 1499 1500 1500 1501 1502 1503 1503 1504 1504 1504 1504 1504 1504 1503 1503 1503 1502 1502 1502 1501 1500 1500 1499 1498 1497 1496 1495 1494 1493 1493 1492 1492
1491 1491 1491 1491 1492 1493 1493 1494 1495 1495 1496 1497 1497 1498 1499 1499 1500 1501 1501 1501 1501 1501 1501 1501 1500 1500 1499 1499 1499 1498 1497 1497 1496 1495 1494 1494 1493 1492 1491 1490 1489 1488 1488
1490 1490 1490 1491 1491 1492 1492 1492 1493 1493 1494 1495 1495 1496 1496 1497 1497 1498 1498 1498 1498 1499 1498 1498 1498 1497 1496 1496 1496 1495 1494 1493 1493 1492 1491 1489 1488 1488 1487 1486 1485 1485 1484
1489 1489 1489 1490 1490 1490 1490 1491 1491 1491 1492 1492 1492 1493 1493 1494 1494 1495 1495 1495 1496 1496 1496 1496 1496 1495 1494 1494 1493 1492 1491 1490 1490 1489 1487 1486 1485 1484 1484 1483 1482 1481 1481